Tracking 25378 objects as of 22-Jan-2022
HD Live streaming from Space Station
objects crossing your sky now

STARLINK-1565

Track STARLINK-1565 now!
10-day predictions
STARLINK-1565 is classified as:


NORAD ID: 46037
Int'l Code: 2020-055L
Perigee: 553.4 km
Apogee: 555.3 km
Inclination: 53.1 °
Period: 95.6 minutes
Semi major axis: 6925 km
RCS: Unknown
Launch date: August 7, 2020
Source: United States (US)
Launch site: AIR FORCE EASTERN TEST RANGE (AFETR)
aabbcc
Your satellite tracking list
Your tracking list is empty




NASA's NSSDC Master Catalog

Two Line Element Set (TLE):
1 46037U 20055L   22021.79639559 -.00000721  00000-0 -29553-4 0  9992
2 46037  53.0559  55.8272 0001364  83.8918 276.2227 15.06392830 81104
Source of the keplerian elements: AFSPC